Regional Weather Roundup
Issued by NWS

Home | Current Version | Previous Version | Text Only | Print | Product List | Glossary Off
Versions: 1 2 3 4 5 6 7 8 9 10 11 12 13 14 15 16 17 18 19 20 21 22 23 24 25 26 27 28 29 30 31 32 33 34 35 36 37 38 39 40 41 42 43 44 45 46 47 48 49 50

000
ASUS43 KIND 222309
RWRIN

WEATHER ROUNDUP FOR INDIANA
NATIONAL WEATHER SERVICE INDIANAPOLIS IN
700 PM EDT FRI MAY 22 2015

NOTE: "FAIR" INDICATES FEW OR NO CLOUDS BELOW 12,000 FEET WITH NO
SIGNIFICANT WEATHER AND/OR OBSTRUCTIONS TO VISIBILITY.

* - STATION DOES NOT REPORT WEATHER SUCH AS PRECIPITATION OR FOG.

+ - STATION NOT QUALITY CONTROLLED BY THE NATIONAL WEATHER SERVICE.
    USE DATA WITH CAUTION...ESPECIALLY DEWPOINT AND RELATIVE
    HUMIDITY OBSERVATIONS.

INZ001>003-010>013-019-020-230000-
NORTHWEST INDIANA

CITY           SKY/WX    TMP DP  RH WIND       PRES   REMARKS
GARY /AIRPORT/ PTSUNNY   55  36  47 NE9       30.27F
KNOX *+        PTSUNNY   64  34  32 N9        30.25R
LA PORTE +     PTSUNNY   66  33  28 N8        30.28R
MICHIGAN CITY+ PTSUNNY   59  34  38 CALM      30.29R
MONTICELLO +   MOSUNNY   73  37  26 N13       30.22R
RENSSELAER +   PTSUNNY   70  34  26 N10       30.23S
VALPARAISO     PTSUNNY   65  31  28 N7        30.28R

$$

LMZ046-743>745-230000-
SOUTHERN LAKE MICHIGAN

STATION/POSITION TIME  TEMP    WIND        PRES    WAVE
                       AIR SEA DIR/SP/G            HT
                 (UTC) (F)     (DEG/KT/KT) (MB)    (FT)
BURNS HARBOR     2300   52      30/  7/  8 1026.1S
MICHIGAN CITY    2300   52      30/  9/ 10   N/A
5NW MICH CITY    2300   52 51   60/  4/  6   N/A     2

$$

INZ004-005-014>016-021>024-230000-
NORTH CENTRAL INDIANA

CITY           SKY/WX    TMP DP  RH WIND       PRES   REMARKS
GOSHEN         MOSUNNY   66  35  31 N15       30.23S
LOGANSPORT +   PTSUNNY   73  25  16 NW6       30.23R
ROCHESTER +    PTSUNNY   70  34  26 N10       30.24R
SOUTH BEND     MOSUNNY   65  32  29 N12       30.26R
WARSAW +       MOSUNNY   66  36  32 N8        30.23S

$$

INZ006>009-017-018-025>027-230000-
NORTHEAST INDIANA

CITY           SKY/WX    TMP DP  RH WIND       PRES   REMARKS
ANGOLA *+      SUNNY     66  37  34 N5        30.23S
AUBURN +       SUNNY     68  34  28 N6        30.23S
FORT WAYNE     PTSUNNY   69  39  33 N8        30.23R
HUNTINGTON +   MOSUNNY   68  33  27 NE5       30.22S

$$

INZ028-029-035-036-043>045-051>053-230000-
WEST CENTRAL INDIANA

CITY           SKY/WX    TMP DP  RH WIND       PRES   REMARKS
CRAWFORDSVL +  CLOUDY    71  33  25 N5        30.21S
GREENCASTLE +  CLOUDY    70  43  37 CALM      30.22S
LAFAYETTE      PTSUNNY   72  41  32 N6        30.21R
TERRE HAUTE    CLOUDY    73  51  46 S8        30.21F

$$

INZ030>032-037>040-046>048-054>057-064-065-230000-
CENTRAL INDIANA

CITY           SKY/WX    TMP DP  RH WIND       PRES   REMARKS
CP ATTERBURY + PTSUNNY   70  46  43 W6        30.23R
FISHERS *+     PTSUNNY   70  50  49 NW6       30.22S
FRANKFORT +    PTSUNNY   73  42  32 W3        30.24S
GREENWOOD *+   PTSUNNY   73  41  31 SW8       30.23R
INDIANAPOLIS   CLOUDY    73  41  31 W6        30.21R
-EAGLE CREEK   PTSUNNY   73  43  33 N7        30.21S
KOKOMO *+      PTSUNNY   72  39  30 NW8       30.22R
MARION +       PTSUNNY   71  33  24 N7        30.23R
MT COMFORT *+  PTSUNNY   72  25  17 NW9       30.22S
SHELBYVILLE    PTSUNNY   75  43  31 W8        30.21R
ZIONSVILLE +   PTSUNNY   72  42  34 N9        30.23S

$$

INZ033-034-041-042-049-050-058-059-230000-
EAST CENTRAL INDIANA

CITY           SKY/WX    TMP DP  RH WIND       PRES   REMARKS
MUNCIE         PTSUNNY   72  40  31 N6        30.22R

$$

INZ060-061-067>069-081>083-085>088-230000-
SOUTHWEST INDIANA

CITY           SKY/WX    TMP DP  RH WIND       PRES   REMARKS
EVANSVILLE     CLOUDY    72  51  47 SW7       30.24S
HUNTINGBURG *+ CLOUDY    70  52  52 W6        30.24S
WASHINGTON +   CLOUDY    74  36  25 W5        30.22S

$$

INZ062-063-066-070>080-084-089>092-230000-
SOUTH CENTRAL AND SOUTHEAST INDIANA

CITY           SKY/WX    TMP DP  RH WIND       PRES   REMARKS
BLOOMINGTON    CLOUDY    72  45  37 SW7       30.23S
MADISON *+     PTSUNNY   72  41  33 W5        30.25S
NORTH VERNON + PTSUNNY   70  43  37 W6        30.23S
SEYMOUR +      CLOUDY    73  45  35 W9        30.23S

$$




USA.gov is the U.S. government's official web portal to all federal, state and local government web resources and services.